Fort Morgan, CO

10:57 AM MST on December 11, 2017 (GMT -0700)
Fort Morgan

Weather History for KFMM - January, 2013

Change the Weather History Date:

Tuesday, January 22, 2013

  Actual Average (KAKO) Record (KAKO)
Temperature  
Mean Temperature 39 °F -  
Max Temperature 59 °F 39 °F 70 °F (1950)
Min Temperature 19 °F 15 °F -11 °F (1962)
Degree Days  
Heating Degree Days 26    
Moisture  
Dew Point 11 °F    
Average Humidity 43    
Maximum Humidity 88    
Minimum Humidity 11    
Precipitation  
Precipitation 0.00 in - - ()
Sea Level Pressure  
Sea Level Pressure 30.09 in    
Wind  
Wind Speed 3 mph (WSW)    
Max Wind Speed 10 mph    
Max Gust Speed -    
Visibility 10 miles    
Events      
Averages and records for this station are not official NWS values.
T = Trace of Precipitation, MM = Missing Value Source: NWS Daily Summary

Daily Weather History Graph

Daily Weather History Graph

Search for Another Location

Airport or City:

Trip Planner

Search our weather history database for the weather conditions in past years. The results will help you decide how hot, cold, wet, or windy it might be!

Date:

Astronomy

Jan. 22, 2013 Rise Set
Actual Time 7:12 AM MST 5:02 PM MST
Civil Twilight 6:42 AM MST 5:31 PM MST
Nautical Twilight 6:09 AM MST 6:04 PM MST
Astronomical Twilight 5:37 AM MST 6:36 PM MST
Moon 1:26 PM MST (1/22) 3:35 AM MST (1/22)
Length of Visible Light 10h 48m
Length of Day
9h 49m
Waxing Gibbous, 83% of the Moon is Illuminated
Jan 22
Waxing Gibbous
Jan 26
Full
Feb 3
Last Quarter
Feb 10
New
Feb 17
First Quarter

Hourly Weather History & Observations

Time (MST) Temp. Windchill Dew Point Humidity Pressure Visibility Wind Dir Wind Speed Gust Speed Precip Events Conditions
12:15 AM 29.8 °F - 21.2 °F 70% 30.05 in 10.0 mi Calm Calm - N/A   Clear
12:55 AM 25.2 °F - 18.7 °F 76% 30.04 in 10.0 mi Calm Calm - N/A   Clear
1:15 AM 25.0 °F - 19.2 °F 79% 30.04 in 10.0 mi Calm Calm - N/A   Clear
1:35 AM 27.0 °F - 20.1 °F 75% 30.03 in 10.0 mi Calm Calm - N/A   Clear
1:55 AM 26.4 °F - 20.3 °F 78% 30.03 in 10.0 mi Calm Calm - N/A   Clear
2:15 AM 19.2 °F 10.2 °F 14.5 °F 82% 30.03 in 10.0 mi West 6.9 mph - N/A   Clear
2:35 AM 19.2 °F 11.3 °F 16.2 °F 88% 30.03 in 10.0 mi WNW 5.8 mph - N/A   Clear
2:55 AM 21.9 °F 17.2 °F 16.7 °F 80% 30.04 in 10.0 mi NNW 3.5 mph - N/A   Clear
3:15 AM 24.4 °F 18.6 °F 18.5 °F 78% 30.03 in 10.0 mi NW 4.6 mph - N/A   Clear
3:35 AM 24.3 °F 19.9 °F 16.2 °F 71% 30.03 in 10.0 mi NW 3.5 mph - N/A   Clear
3:55 AM 29.3 °F - 17.4 °F 61% 30.03 in 10.0 mi Calm Calm - N/A   Clear
4:15 AM 25.9 °F - 15.8 °F 66% 30.03 in 10.0 mi Calm Calm - N/A   Clear
4:35 AM 20.3 °F - 14.0 °F 77% 30.03 in 10.0 mi Calm Calm - N/A   Clear
4:55 AM 25.2 °F 19.5 °F 15.3 °F 66% 30.03 in 10.0 mi NW 4.6 mph - N/A   Clear
5:15 AM 25.2 °F 19.5 °F 14.5 °F 64% 30.03 in 10.0 mi NW 4.6 mph - N/A   Clear
5:35 AM 22.8 °F - 13.8 °F 68% 30.04 in 10.0 mi Calm Calm - N/A   Clear
5:55 AM 21.4 °F 16.6 °F 13.3 °F 71% 30.06 in 10.0 mi SW 3.5 mph - N/A   Clear
6:15 AM 21.7 °F - 15.4 °F 77% 30.07 in 10.0 mi Calm Calm - N/A   Clear
6:35 AM 27.0 °F 23.0 °F 19.2 °F 73% 30.08 in 10.0 mi West 3.5 mph - N/A   Clear
6:55 AM 27.1 °F 19.7 °F 17.1 °F 66% 30.09 in 10.0 mi WSW 6.9 mph - N/A   Clear
7:15 AM 20.5 °F 10.0 °F 12.9 °F 73% 30.09 in 10.0 mi West 9.2 mph - N/A   Clear
7:35 AM 22.8 °F 13.6 °F 15.4 °F 73% 30.09 in 10.0 mi West 8.1 mph - N/A   Clear
7:55 AM 24.6 °F 15.1 °F 16.5 °F 71% 30.09 in 10.0 mi West 9.2 mph - N/A   Clear
8:15 AM 23.7 °F 14.7 °F 16.5 °F 74% 30.10 in 10.0 mi West 8.1 mph - N/A   Clear
8:35 AM 27.5 °F 18.6 °F 18.3 °F 68% 30.10 in 10.0 mi West 9.2 mph - N/A   Clear
8:55 AM 29.1 °F 21.3 °F 19.4 °F 67% 30.10 in 10.0 mi WSW 8.1 mph - N/A   Clear
9:15 AM 30.6 °F 21.8 °F 18.9 °F 62% 30.11 in 10.0 mi West 10.4 mph - N/A   Clear
9:35 AM 34.0 °F 26.0 °F 17.6 °F 51% 30.11 in 10.0 mi West 10.4 mph - N/A   Clear
9:55 AM 37.2 °F 30.6 °F 16.5 °F 43% 30.12 in 10.0 mi WSW 9.2 mph - N/A   Clear
10:15 AM 40.1 °F 35.3 °F 16.2 °F 38% 30.12 in 10.0 mi WSW 6.9 mph - N/A   Clear
10:35 AM 41.0 °F 38.0 °F 16.5 °F 37% 30.13 in 10.0 mi SW 4.6 mph - N/A   Clear
10:55 AM 43.2 °F 37.9 °F 15.3 °F 32% 30.12 in 10.0 mi WSW 9.2 mph - N/A   Clear
11:15 AM 46.4 °F 42.9 °F 14.2 °F 27% 30.11 in 10.0 mi WSW 6.9 mph - N/A   Clear
11:35 AM 48.7 °F - 13.8 °F 25% 30.10 in 10.0 mi WSW 6.9 mph - N/A   Clear
11:55 AM 51.8 °F - 12.9 °F 21% 30.09 in 10.0 mi SW 6.9 mph - N/A   Clear
12:15 PM 54.3 °F - 12.4 °F 19% 30.09 in 10.0 mi WSW 3.5 mph - N/A   Clear
12:35 PM 56.3 °F - 10.0 °F 16% 30.09 in 10.0 mi WSW 3.5 mph - N/A   Clear
12:55 PM 57.0 °F - 7.2 °F 14% 30.09 in 10.0 mi West 3.5 mph - N/A   Clear
1:15 PM 57.6 °F - 4.8 °F 12% 30.07 in 10.0 mi Calm Calm - N/A   Clear
1:35 PM 58.1 °F - 3.4 °F 11% 30.07 in 10.0 mi SE 3.5 mph - N/A   Clear
1:55 PM 58.1 °F - 3.9 °F 11% 30.07 in 10.0 mi SE 4.6 mph - N/A   Clear
2:15 PM 58.6 °F - 4.5 °F 11% 30.07 in 10.0 mi SSE 5.8 mph - N/A   Clear
2:35 PM 58.3 °F - 3.6 °F 11% 30.07 in 10.0 mi SSW 4.6 mph - N/A   Clear
2:55 PM 58.8 °F - 3.6 °F 11% 30.07 in 10.0 mi Calm Calm - N/A   Clear
3:15 PM 59.0 °F - 3.7 °F 11% 30.07 in 10.0 mi Calm Calm - N/A   Clear
3:35 PM 58.3 °F - 3.0 °F 11% 30.06 in 10.0 mi SSE 3.5 mph - N/A   Clear
3:55 PM 58.1 °F - 3.6 °F 11% 30.06 in 10.0 mi SSW 6.9 mph - N/A   Clear
4:15 PM 55.6 °F - 4.1 °F 13% 30.07 in 10.0 mi South 6.9 mph - N/A   Clear
4:35 PM 53.1 °F - 3.2 °F 13% 30.07 in 10.0 mi South 4.6 mph - N/A   Clear
4:55 PM 52.3 °F - 2.5 °F 13% 30.08 in 10.0 mi Calm Calm - N/A   Clear
5:15 PM 48.9 °F - 2.3 °F 15% 30.09 in 10.0 mi WSW 4.6 mph - N/A   Clear
5:35 PM 47.5 °F - 1.2 °F 15% 30.09 in 10.0 mi WSW 3.5 mph - N/A   Clear
5:55 PM 48.6 °F - 1.9 °F 15% 30.11 in 10.0 mi Calm Calm - N/A   Clear
6:15 PM 36.3 °F 29.5 °F 3.4 °F 25% 30.12 in 10.0 mi NE 9.2 mph - N/A   Clear
6:35 PM 38.5 °F 33.4 °F 3.6 °F 23% 30.13 in 10.0 mi ENE 6.9 mph - N/A   Clear
6:55 PM 41.5 °F 37.8 °F 5.9 °F 23% 30.13 in 10.0 mi East 5.8 mph - N/A   Clear
7:15 PM 40.5 °F 36.5 °F 6.8 °F 25% 30.13 in 10.0 mi East 5.8 mph - N/A   Clear
7:35 PM 40.3 °F 35.5 °F 7.5 °F 26% 30.13 in 10.0 mi East 6.9 mph - N/A   Clear
7:55 PM 35.2 °F 31.2 °F 7.3 °F 31% 30.13 in 10.0 mi ESE 4.6 mph - N/A   Clear
8:15 PM 37.0 °F 33.3 °F 7.7 °F 30% 30.13 in 10.0 mi East 4.6 mph - N/A   Clear
8:35 PM 37.4 °F 33.8 °F 7.7 °F 29% 30.14 in 10.0 mi East 4.6 mph - N/A   Clear
8:55 PM 37.4 °F 34.9 °F 7.9 °F 29% 30.13 in 10.0 mi SE 3.5 mph - N/A   Clear
9:15 PM 35.1 °F 32.2 °F 7.0 °F 31% 30.14 in 10.0 mi SSW 3.5 mph - N/A   Clear
9:55 PM 34.7 °F - 7.3 °F 32% 30.14 in 10.0 mi Calm Calm - N/A   Clear
10:15 PM 35.6 °F 32.8 °F 8.4 °F 32% 30.14 in 10.0 mi SW 3.5 mph - N/A   Clear
10:35 PM 34.0 °F - 7.7 °F 33% 30.14 in 10.0 mi Calm Calm - N/A   Clear
10:55 PM 34.7 °F - 8.2 °F 33% 30.15 in 10.0 mi Calm Calm - N/A   Clear
11:15 PM 34.2 °F 30.0 °F 8.1 °F 34% 30.14 in 10.0 mi West 4.6 mph - N/A   Clear
11:35 PM 30.9 °F 26.2 °F 7.5 °F 37% 30.14 in 10.0 mi West 4.6 mph - N/A   Clear
11:55 PM 27.1 °F 23.2 °F 7.3 °F 43% 30.13 in 10.0 mi NW 3.5 mph - N/A   Clear